Hourly Data Report for March 19, 2015

All times are specified in Local Standard Time (LST). Add 1 hour to adjust for Daylight Saving Time where and when it is observed.

MIRAMICHI RCS
NEW BRUNSWICK

47°00'34.000" N
65°27'54.000" W
33.00 m
8100989
71744
ACQ

Download Data

Hourly Data (March 2015)
Hourly Data Report for March 19, 2015
TIME Temp Definition
°C
Dew Point Definition
°C
Rel Hum Definition
%
Wind Dir Definition
10's deg

Wind Spd Definition
km/h
Visibility Definition
km
Stn Press Definition
kPa
Hmdx Definition


Wind Chill Definition


Weather Definition


00:00 -8.3 -13.6 66 28 18   99.75   -15 LegendNANA
01:00 -8.5 -13.8 66 28 18   99.79   -16 LegendNANA
02:00 -8.8 -14.1 66 28 17   99.85   -16 LegendNANA
03:00 -8.9 -14.2 66 28 19   99.89   -16 LegendNANA
04:00 -8.9 -14.3 65 28 17   99.94   -16 LegendNANA
05:00 -9.0 -14.4 65 29 15   99.98   -16 LegendNANA
06:00 -8.9 -14.4 64 30 16   100.06   -16 LegendNANA
07:00 -8.8 -14.5 64 29 19   100.12   -16 LegendNANA
08:00 -8.4 -14.2 63 30 20   100.19   -16 LegendNANA
09:00 -7.0 -13.9 58 31 15   100.26   -13 LegendNANA
10:00 -5.8 -13.4 55 31 19   100.30   -12 LegendNANA
11:00 -4.7 -12.9 53 32 20   100.34   -11 LegendNANA
12:00 -3.1 -11.9 51 32 15   100.36   -8 LegendNANA
13:00 -1.8 -11.6 47 31 14   100.36   -6 LegendNANA
14:00 -0.2 -11.1 44 30 16   100.39   -5 LegendNANA
15:00 -0.3 -11.3 43 32 15   100.44   -5 LegendNANA
16:00 0.3 -10.5 44 31 15   100.52     LegendNANA
17:00 -0.1 -10.4 46 31 16   100.63   -5 LegendNANA
18:00 -1.3 -10.5 50 30 18   100.73   -7 LegendNANA
19:00 -2.8 -10.9 53 30 16   100.89   -8 LegendNANA
20:00 -4.2 -11.7 56 30 12   101.08   -9 LegendNANA
21:00 -5.2 -12.2 58 29 16   101.17   -11 LegendNANA
22:00 -5.6 -12.2 59 29 15   101.24   -11 LegendNANA
23:00 -5.3 -12.2 58 29 20   101.25   -12 LegendNANA

Notes on Data Quality.

Legend

  • E = Estimated
  • M = Missing
  • NA = Not Available
Date modified: